,,Stat6,,Stat2,,Stat8,,Stat9,,Stat10,,Wind1,,Wind1,
time,status,PA1M_AVG,status,PR1M_SUM,status,RH1M_AVG,status,SR1M_AVG,status,TA1M_AVG,status,W1dAve1m,status,W1sAve1m,
2006-10-19, 07:00:01,VALID,918.462,VALID,0,VALID,100,VALID,0,VALID,21.0743,VALID,8,VALID,0.00817587,
2006-10-19, 07:01:00,VALID,918.441,VALID,0,VALID,100,VALID,0.0339617,VALID,21.0845,VALID,332,VALID,0.143821,
2006-10-19, 07:02:00,VALID,918.421,VALID,0,VALID,100,VALID,0,VALID,21.0746,VALID,314,VALID,0.409226,
2006-10-19, 07:03:00,VALID,918.411,VALID,0,VALID,100,VALID,-0.0169808,VALID,21.0684,VALID,314,VALID,0.407366,
2006-10-19, 07:04:00,VALID,918.416,VALID,0,VALID,100,VALID,0,VALID,21.0487,VALID,314,VALID,0.30506,
2006-10-19, 07:05:00,VALID,918.391,VALID,0,VALID,100,VALID,0,VALID,21.0331,VALID,314,VALID,0.0109012,
2006-10-19, 07:06:00,VALID,918.374,VALID,0,VALID,100,VALID,0,VALID,21.0264,VALID,314,VALID,0,
2006-10-19, 07:07:00,VALID,918.339,VALID,0,VALID,100,VALID,0,VALID,21.0199,VALID,314,VALID,0,
2006-10-19, 07:08:00,VALID,918.313,VALID,0,VALID,100,VALID,0.0169808,VALID,21.0132,VALID,314,VALID,0,
2006-10-19, 07:09:00,VALID,918.277,VALID,0,VALID,100,VALID,0,VALID,21.0006,VALID,21,VALID,0.255269,
2006-10-19, 07:10:00,VALID,918.256,VALID,0,VALID,100,VALID,0,VALID,20.978,VALID,99,VALID,0.180804,
2006-10-19, 07:11:00,VALID,918.258,VALID,0,VALID,100,VALID,0,VALID,20.9852,VALID,99,VALID,0.292783,
2006-10-19, 07:12:00,VALID,918.266,VALID,0,VALID,100,VALID,0,VALID,20.9551,VALID,99,VALID,0,
2006-10-19, 07:13:00,VALID,918.287,VALID,0,VALID,100,VALID,0,VALID,20.9293,VALID,11,VALID,0.462713,
2006-10-19, 07:14:00,VALID,918.308,VALID,0,VALID,100,VALID,0,VALID,20.8846,VALID,342,VALID,0.707919,
2006-10-19, 07:15:00,VALID,918.349,VALID,0,VALID,100,VALID,-0.0169808,VALID,20.8262,VALID,335,VALID,0.736049,
2006-10-19, 07:16:00,VALID,918.361,VALID,0,VALID,100,VALID,-0.0169808,VALID,20.7977,VALID,331,VALID,0.703804,
2006-10-19, 07:17:00,VALID,918.385,VALID,0,VALID,100,VALID,-0.0339617,VALID,20.7783,VALID,326,VALID,0.732088,
2006-10-19, 07:18:00,VALID,918.389,VALID,0,VALID,100,VALID,-0.0339617,VALID,20.7754,VALID,322,VALID,0.699128,
2006-10-19, 07:19:00,VALID,918.379,VALID,0,VALID,100,VALID,0,VALID,20.7654,VALID,317,VALID,0.649554,
2006-10-19, 07:20:00,VALID,918.381,VALID,0,VALID,100,VALID,-0.0169808,VALID,20.7622,VALID,317,VALID,0.49442,
2006-10-19, 07:21:00,VALID,918.361,VALID,0,VALID,100,VALID,-0.0169808,VALID,20.7552,VALID,317,VALID,0.474276,
2006-10-19, 07:22:00,VALID,918.377,VALID,0,VALID,100,VALID,0,VALID,20.7364,VALID,317,VALID,0.312863,
2006-10-19, 07:23:00,VALID,918.39,VALID,0,VALID,100,VALID,0,VALID,20.7331,VALID,317,VALID,0.454055,
2006-10-19, 07:24:00,VALID,918.423,VALID,0,VALID,100,VALID,0,VALID,20.7135,VALID,311,VALID,0.433503,
2006-10-19, 07:25:00,VALID,918.438,VALID,0,VALID,100,VALID,0,VALID,20.7237,VALID,288,VALID,0.579427,
2006-10-19, 07:26:00,VALID,918.47,VALID,0,VALID,100,VALID,0,VALID,20.7135,VALID,283,VALID,0.76399,
2006-10-19, 07:27:00,VALID,918.499,VALID,0,VALID,100,VALID,0,VALID,20.6909,VALID,287,VALID,0.813227,
2006-10-19, 07:28:00,VALID,918.508,VALID,0,VALID,100,VALID,-0.0339617,VALID,20.6693,VALID,299,VALID,0.927591,
2006-10-19, 07:29:00,VALID,918.519,VALID,0,VALID,100,VALID,-0.0169808,VALID,20.6239,VALID,316,VALID,0.933789,
2006-10-19, 07:30:00,VALID,918.493,VALID,0,VALID,100,VALID,-0.0509425,VALID,20.5951,VALID,323,VALID,1.17569,
2006-10-19, 07:31:00,VALID,918.477,VALID,0,VALID,100,VALID,-0.0679233,VALID,20.5921,VALID,338,VALID,0.816306,
2006-10-19, 07:32:00,VALID,918.476,VALID,0,VALID,100,VALID,-0.0339617,VALID,20.5588,VALID,349,VALID,0.548328,
2006-10-19, 07:33:00,VALID,918.46,VALID,0,VALID,100,VALID,0,VALID,20.54,VALID,352,VALID,0.460193,
2006-10-19, 07:34:00,VALID,918.439,VALID,0,VALID,100,VALID,-0.0169808,VALID,20.5201,VALID,352,VALID,0.245458,
2006-10-19, 07:35:00,VALID,918.43,VALID,0,VALID,100,VALID,0,VALID,20.5271,VALID,352,VALID,0.132487,
2006-10-19, 07:36:00,VALID,918.428,VALID,0,VALID,100,VALID,0,VALID,20.5171,VALID,352,VALID,0.0470526,
2006-10-19, 07:37:00,VALID,918.382,VALID,0,VALID,100,VALID,0,VALID,20.5099,VALID,352,VALID,0.177827,
2006-10-19, 07:38:00,VALID,918.341,VALID,0,VALID,100,VALID,-0.0169808,VALID,20.5335,VALID,352,VALID,0.0323661,
2006-10-19, 07:39:00,VALID,918.296,VALID,0,VALID,100,VALID,0,VALID,20.5529,VALID,352,VALID,0.0414807,
2006-10-19, 07:40:00,VALID,918.267,VALID,0,VALID,100,VALID,-0.0169808,VALID,20.572,VALID,353,VALID,0.231105,
2006-10-19, 07:41:00,VALID,918.231,VALID,0,VALID,100,VALID,-0.0169808,VALID,20.5817,VALID,360,VALID,0.398438,
2006-10-19, 07:42:00,VALID,918.197,VALID,0,VALID,100,VALID,0,VALID,20.5658,VALID,360,VALID,0.326923,
2006-10-19, 07:43:00,VALID,918.18,VALID,0,VALID,100,VALID,0,VALID,20.5524,VALID,360,VALID,0.250372,
2006-10-19, 07:44:00,VALID,918.153,VALID,0,VALID,100,VALID,0,VALID,20.5459,VALID,360,VALID,0.00726744,
2006-10-19, 07:45:00,VALID,918.145,VALID,0,VALID,100,VALID,0,VALID,20.5427,VALID,360,VALID,0,
2006-10-19, 07:46:00,VALID,918.144,VALID,0,VALID,100,VALID,0,VALID,20.5456,VALID,360,VALID,0,
2006-10-19, 07:47:00,VALID,918.149,VALID,0,VALID,100,VALID,0,VALID,20.5429,VALID,360,VALID,0,
2006-10-19, 07:48:00,VALID,918.137,VALID,0,VALID,100,VALID,0,VALID,20.5109,VALID,360,VALID,0.170486,
2006-10-19, 07:49:00,VALID,918.114,VALID,0,VALID,100,VALID,-0.0169808,VALID,20.4784,VALID,4,VALID,0.486243,
2006-10-19, 07:50:00,VALID,918.073,VALID,0,VALID,100,VALID,-0.0339617,VALID,20.4722,VALID,38,VALID,0.764063,
2006-10-19, 07:51:00,VALID,918.029,VALID,0,VALID,100,VALID,0,VALID,20.4717,VALID,52,VALID,0.51669,
2006-10-19, 07:52:00,VALID,917.987,VALID,0,VALID,100,VALID,0,VALID,20.4943,VALID,33,VALID,0.491257,
2006-10-19, 07:53:00,VALID,917.94,VALID,0,VALID,100,VALID,-0.0339617,VALID,20.4945,VALID,30,VALID,0.144141,
2006-10-19, 07:54:00,VALID,917.921,VALID,0,VALID,100,VALID,0,VALID,20.4913,VALID,27,VALID,0.295387,
2006-10-19, 07:55:00,VALID,917.906,VALID,0,VALID,100,VALID,0,VALID,20.4975,VALID,23,VALID,0.596294,
2006-10-19, 07:56:00,VALID,917.903,VALID,0,VALID,100,VALID,0,VALID,20.4943,VALID,23,VALID,0.22218,
2006-10-19, 07:57:00,VALID,917.894,VALID,0,VALID,100,VALID,-0.0169808,VALID,20.5039,VALID,23,VALID,0.272222,
2006-10-19, 07:58:00,VALID,917.878,VALID,0,VALID,100,VALID,0.0169808,VALID,20.5141,VALID,17,VALID,0.796875,
2006-10-19, 07:59:00,VALID,917.862,VALID,0,VALID,100,VALID,0,VALID,20.5141,VALID,15,VALID,0.598544,
2006-10-19, 08:00:00,VALID,917.848,VALID,0,VALID,100,VALID,-0.0169808,VALID,20.5007,VALID,19,VALID,0.660792,
2006-10-19, 08:01:00,VALID,917.82,VALID,0,VALID,100,VALID,0,VALID,20.491,VALID,25,VALID,0.803013,
2006-10-19, 08:02:00,VALID,917.79,VALID,0,VALID,100,VALID,0,VALID,20.4848,VALID,47,VALID,0.680859,
2006-10-19, 08:03:00,VALID,917.757,VALID,0,VALID,100,VALID,0.0169808,VALID,20.4851,VALID,37,VALID,0.525981,
2006-10-19, 08:04:00,VALID,917.737,VALID,0,VALID,100,VALID,0.0169808,VALID,20.4915,VALID,52,VALID,0.433689,
2006-10-19, 08:05:00,VALID,917.708,VALID,0,VALID,100,VALID,0,VALID,20.4846,VALID,53,VALID,0.537674,
2006-10-19, 08:06:00,VALID,917.678,VALID,0,VALID,100,VALID,0,VALID,20.4719,VALID,47,VALID,0.396802,
2006-10-19, 08:07:00,VALID,917.672,VALID,0,VALID,100,VALID,0,VALID,20.4689,VALID,38,VALID,0.686384,
2006-10-19, 08:08:00,VALID,917.641,VALID,0,VALID,100,VALID,0,VALID,20.4657,VALID,39,VALID,0.449963,
2006-10-19, 08:09:00,VALID,917.618,VALID,0,VALID,100,VALID,0,VALID,20.4585,VALID,57,VALID,0.583333,
2006-10-19, 08:10:00,VALID,917.613,VALID,0,VALID,100,VALID,-0.0169808,VALID,20.4525,VALID,63,VALID,0.50465,
2006-10-19, 08:11:00,VALID,917.599,VALID,0,VALID,100,VALID,0,VALID,20.4555,VALID,64,VALID,0.860102,
2006-10-19, 08:12:00,VALID,917.594,VALID,0,VALID,100,VALID,0,VALID,20.4523,VALID,64,VALID,0.479403,
2006-10-19, 08:13:00,VALID,917.581,VALID,0,VALID,100,VALID,0.0339617,VALID,20.4456,VALID,64,VALID,0.298878,
2006-10-19, 08:14:00,VALID,917.552,VALID,0,VALID,100,VALID,-0.0169808,VALID,20.4396,VALID,64,VALID,0.0957031,
2006-10-19, 08:15:00,VALID,917.539,VALID,0,VALID,100,VALID,-0.0169808,VALID,20.4458,VALID,64,VALID,0.373958,
2006-10-19, 08:16:00,VALID,917.515,VALID,0,VALID,100,VALID,0.0169808,VALID,20.4528,VALID,76,VALID,0.535714,
2006-10-19, 08:17:00,VALID,917.509,VALID,0,VALID,100,VALID,0,VALID,20.4431,VALID,79,VALID,0.684375,
2006-10-19, 08:18:00,VALID,917.507,VALID,0,VALID,100,VALID,0,VALID,20.427,VALID,79,VALID,0.65734,
2006-10-19, 08:19:00,VALID,917.524,VALID,0,VALID,100,VALID,0,VALID,20.4404,VALID,78,VALID,0.39403,
2006-10-19, 08:20:00,VALID,917.52,VALID,0.2,VALID,100,VALID,0,VALID,20.4232,VALID,78,VALID,0.259811,
2006-10-19, 08:21:00,VALID,917.538,VALID,0,VALID,100,VALID,0,VALID,20.4364,VALID,78,VALID,0.267113,
2006-10-19, 08:22:00,VALID,917.537,VALID,0,VALID,100,VALID,0,VALID,20.4327,VALID,78,VALID,0.44494,
2006-10-19, 08:23:00,VALID,917.542,VALID,0,VALID,100,VALID,0,VALID,20.4436,VALID,52,VALID,0.556593,
2006-10-19, 08:24:00,VALID,917.535,VALID,0,VALID,100,VALID,0,VALID,20.4431,VALID,36,VALID,0.487165,
2006-10-19, 08:25:00,VALID,917.522,VALID,0,VALID,100,VALID,0,VALID,20.4493,VALID,37,VALID,0.380435,
2006-10-19, 08:26:00,VALID,917.486,VALID,0,VALID,100,VALID,0,VALID,20.4396,VALID,37,VALID,0.0454545,
2006-10-19, 08:27:00,VALID,917.465,VALID,0,VALID,100,VALID,-0.0339617,VALID,20.456,VALID,37,VALID,0.00218023,
2006-10-19, 08:28:00,VALID,917.447,VALID,0,VALID,100,VALID,0,VALID,20.4692,VALID,37,VALID,0,
2006-10-19, 08:29:00,VALID,917.408,VALID,0,VALID,100,VALID,0,VALID,20.4525,VALID,37,VALID,0.0012429,
2006-10-19, 08:30:00,VALID,917.385,VALID,0,VALID,100,VALID,0,VALID,20.4595,VALID,37,VALID,0.147195,
2006-10-19, 08:31:00,VALID,917.358,VALID,0,VALID,100,VALID,0.0339617,VALID,20.4367,VALID,51,VALID,0.40263,
2006-10-19, 08:32:00,VALID,917.355,VALID,0,VALID,100,VALID,0,VALID,20.424,VALID,67,VALID,0.399653,
2006-10-19, 08:33:00,VALID,917.316,VALID,0,VALID,100,VALID,0,VALID,20.4041,VALID,102,VALID,0.847565,
2006-10-19, 08:34:00,VALID,917.317,VALID,0,VALID,100,VALID,0,VALID,20.3982,VALID,115,VALID,0.612424,
2006-10-19, 08:35:00,VALID,917.315,VALID,0,VALID,100,VALID,0,VALID,20.3979,VALID,113,VALID,0.358041,
2006-10-19, 08:36:00,VALID,917.311,VALID,0,VALID,100,VALID,0.0169808,VALID,20.4079,VALID,100,VALID,0.323583,
2006-10-19, 08:37:00,VALID,917.309,VALID,0,VALID,100,VALID,0,VALID,20.4044,VALID,86,VALID,0.669331,
2006-10-19, 08:38:00,VALID,917.298,VALID,0,VALID,100,VALID,-0.0169808,VALID,20.391,VALID,79,VALID,0.671303,
2006-10-19, 08:39:00,VALID,917.286,VALID,0,VALID,100,VALID,0,VALID,20.3984,VALID,77,VALID,0.432355,
2006-10-19, 08:40:00,VALID,917.251,VALID,0,VALID,100,VALID,0.0339617,VALID,20.3718,VALID,77,VALID,0.047247,
2006-10-19, 08:41:00,VALID,917.235,VALID,0,VALID,100,VALID,0,VALID,20.3718,VALID,77,VALID,0.053267,
2006-10-19, 08:42:00,VALID,917.227,VALID,0,VALID,100,VALID,0,VALID,20.3888,VALID,77,VALID,0.116461,
2006-10-19, 08:43:00,VALID,917.223,VALID,0,VALID,100,VALID,0.0339617,VALID,20.3818,VALID,77,VALID,0.00223214,
2006-10-19, 08:44:00,VALID,917.227,VALID,0,VALID,100,VALID,0,VALID,20.3947,VALID,77,VALID,0.0615699,
2006-10-19, 08:45:00,VALID,917.226,VALID,0,VALID,100,VALID,0.0339617,VALID,20.391,VALID,77,VALID,0.322976,
2006-10-19, 08:46:00,VALID,917.221,VALID,0,VALID,100,VALID,0.101885,VALID,20.3673,VALID,77,VALID,0.379542,
2006-10-19, 08:47:00,VALID,917.212,VALID,0,VALID,100,VALID,0.101885,VALID,20.3641,VALID,77,VALID,0.262835,
2006-10-19, 08:48:00,VALID,917.189,VALID,0,VALID,100,VALID,0.101885,VALID,20.3515,VALID,77,VALID,0.490184,
2006-10-19, 08:49:00,VALID,917.199,VALID,0,VALID,100,VALID,0.101885,VALID,20.3482,VALID,77,VALID,0.37872,
2006-10-19, 08:50:00,VALID,917.209,VALID,0,VALID,100,VALID,0.101885,VALID,20.345,VALID,76,VALID,0.663035,
2006-10-19, 08:51:00,VALID,917.209,VALID,0,VALID,100,VALID,0.118866,VALID,20.3512,VALID,76,VALID,0.610491,
2006-10-19, 08:52:00,VALID,917.212,VALID,0,VALID,100,VALID,0.101885,VALID,20.3679,VALID,77,VALID,0.342773,
2006-10-19, 08:53:00,VALID,917.192,VALID,0,VALID,100,VALID,0.101885,VALID,20.3713,VALID,77,VALID,0.384028,
2006-10-19, 08:54:00,VALID,917.172,VALID,0,VALID,100,VALID,0.118866,VALID,20.3542,VALID,78,VALID,0.505605,
2006-10-19, 08:55:00,VALID,917.147,VALID,0,VALID,100,VALID,0.101885,VALID,20.3321,VALID,98,VALID,0.503049,
2006-10-19, 08:56:00,VALID,917.129,VALID,0,VALID,100,VALID,0.101885,VALID,20.3385,VALID,92,VALID,0.724918,
2006-10-19, 08:57:00,VALID,917.112,VALID,0,VALID,100,VALID,0.0849042,VALID,20.3455,VALID,106,VALID,0.720567,
2006-10-19, 08:58:00,VALID,917.078,VALID,0,VALID,100,VALID,0.101885,VALID,20.3415,VALID,113,VALID,0.540465,
2006-10-19, 08:59:00,VALID,917.05,VALID,0,VALID,100,VALID,0.0849042,VALID,20.3485,VALID,131,VALID,0.695884,
2006-10-19, 09:00:00,VALID,917.037,VALID,0,VALID,100,VALID,0.0339617,VALID,20.3562,VALID,122,VALID,0.760789,
2006-10-19, 09:01:00,VALID,917.018,VALID,0,VALID,100,VALID,-0.101885,VALID,20.3744,VALID,90,VALID,0.520486,
2006-10-19, 09:02:00,VALID,916.995,VALID,0,VALID,100,VALID,-0.101885,VALID,20.3478,VALID,77,VALID,0.802572,
2006-10-19, 09:03:00,VALID,916.976,VALID,0,VALID,100,VALID,-0.101885,VALID,20.3441,VALID,80,VALID,0.10831,
2006-10-19, 09:04:00,VALID,916.97,VALID,0,VALID,100,VALID,-0.101885,VALID,20.3376,VALID,80,VALID,0,
2006-10-19, 09:05:00,VALID,916.946,VALID,0,VALID,100,VALID,-0.0679233,VALID,20.357,VALID,80,VALID,0.0563322,
2006-10-19, 09:06:00,VALID,916.939,VALID,0,VALID,100,VALID,-0.101885,VALID,20.3446,VALID,80,VALID,0.469494,
2006-10-19, 09:07:00,VALID,916.948,VALID,0,VALID,100,VALID,-0.101885,VALID,20.322,VALID,80,VALID,0.144077,
2006-10-19, 09:08:00,VALID,916.942,VALID,0,VALID,100,VALID,-0.101885,VALID,20.322,VALID,80,VALID,0.144077,
2006-10-19, 09:09:00,VALID,916.946,VALID,0,VALID,100,VALID,-0.101885,VALID,20.3505,VALID,65,VALID,0.205163,
2006-10-19, 09:10:00,VALID,916.948,VALID,0,VALID,100,VALID,-0.0849042,VALID,20.3769,VALID,38,VALID,0.34189,
2006-10-19, 09:11:00,VALID,916.95,VALID,0,VALID,100,VALID,-0.0849042,VALID,20.3742,VALID,40,VALID,0.285666,
2006-10-19, 09:12:00,VALID,916.942,VALID,0,VALID,100,VALID,-0.0679233,VALID,20.3346,VALID,38,VALID,0.737393,
2006-10-19, 09:13:00,VALID,916.936,VALID,0,VALID,100,VALID,-0.0849042,VALID,20.3421,VALID,12,VALID,0.647693,
2006-10-19, 09:14:00,VALID,916.93,VALID,0,VALID,100,VALID,-0.0679233,VALID,20.3376,VALID,40,VALID,0.752668,
2006-10-19, 09:15:00,VALID,916.933,VALID,0,VALID,99.9489,VALID,-0.0339617,VALID,20.3796,VALID,4,VALID,0.632473,
2006-10-19, 09:16:00,VALID,916.934,VALID,0,VALID,99.7536,VALID,0,VALID,20.4079,VALID,300,VALID,0.185785,
2006-10-19, 09:17:00,VALID,916.927,VALID,0,VALID,99.4382,VALID,0,VALID,20.4176,VALID,301,VALID,0.338605,
2006-10-19, 09:18:00,VALID,916.928,VALID,0,VALID,99.133,VALID,0,VALID,20.4307,VALID,301,VALID,0.316576,
2006-10-19, 09:19:00,VALID,916.924,VALID,0,VALID,98.9003,VALID,0.0339617,VALID,20.4267,VALID,301,VALID,0.222384,
2006-10-19, 09:20:00,VALID,916.93,VALID,0,VALID,98.7986,VALID,0.0339617,VALID,20.4496,VALID,301,VALID,0.0694247,
2006-10-19, 09:21:00,VALID,916.929,VALID,0,VALID,98.7579,VALID,0,VALID,20.4754,VALID,301,VALID,0,
2006-10-19, 09:22:00,VALID,916.936,VALID,0,VALID,98.6549,VALID,0,VALID,20.4883,VALID,301,VALID,0,
2006-10-19, 09:23:00,VALID,916.935,VALID,0,VALID,98.5837,VALID,0,VALID,20.5079,VALID,295,VALID,0.201672,
2006-10-19, 09:24:00,VALID,916.93,VALID,0,VALID,98.7312,VALID,0,VALID,20.5236,VALID,262,VALID,0.568004,
2006-10-19, 09:25:00,VALID,916.927,VALID,0,VALID,98.6435,VALID,0,VALID,20.5042,VALID,248,VALID,0.38548,
2006-10-19, 09:26:00,VALID,916.919,VALID,0,VALID,98.6002,VALID,0.0339617,VALID,20.4657,VALID,247,VALID,0.316229,
2006-10-19, 09:27:00,VALID,916.91,VALID,0,VALID,98.7973,VALID,0,VALID,20.4238,VALID,247,VALID,0.245094,
2006-10-19, 09:28:00,VALID,916.9,VALID,0,VALID,99.0631,VALID,0.0169808,VALID,20.4081,VALID,247,VALID,0.0729167,
2006-10-19, 09:29:00,VALID,916.903,VALID,0,VALID,99.2704,VALID,0,VALID,20.4012,VALID,247,VALID,0,
2006-10-19, 09:30:00,VALID,916.905,VALID,0,VALID,99.517,VALID,-0.0169808,VALID,20.4052,VALID,247,VALID,0.0939453,
2006-10-19, 09:31:00,VALID,916.897,VALID,0,VALID,99.7383,VALID,-0.0169808,VALID,20.4014,VALID,269,VALID,0.46689,
2006-10-19, 09:32:00,VALID,916.888,VALID,0,VALID,99.9939,VALID,-0.0339617,VALID,20.428,VALID,276,VALID,0.378196,
2006-10-19, 09:33:00,VALID,916.877,VALID,0,VALID,100,VALID,-0.0339617,VALID,20.4541,VALID,276,VALID,0.0645461,
2006-10-19, 09:34:00,VALID,916.862,VALID,0,VALID,100,VALID,0,VALID,20.4372,VALID,276,VALID,0.183949,
2006-10-19, 09:35:00,VALID,916.852,VALID,0,VALID,100,VALID,-0.0169808,VALID,20.4342,VALID,276,VALID,0.189499,
2006-10-19, 09:36:00,VALID,916.83,VALID,0,VALID,100,VALID,-0.0339617,VALID,20.4054,VALID,276,VALID,0.108211,
2006-10-19, 09:37:00,VALID,916.826,VALID,0,VALID,100,VALID,-0.0339617,VALID,20.3826,VALID,276,VALID,0.0215278,
2006-10-19, 09:38:00,VALID,916.836,VALID,0,VALID,100,VALID,-0.0509425,VALID,20.399,VALID,276,VALID,0.0163352,
2006-10-19, 09:39:00,VALID,916.839,VALID,0,VALID,100,VALID,-0.0169808,VALID,20.3855,VALID,276,VALID,0.0167411,
2006-10-19, 09:40:00,VALID,916.84,VALID,0,VALID,100,VALID,-0.0509425,VALID,20.3863,VALID,276,VALID,0.00872093,
2006-10-19, 09:41:00,VALID,916.833,VALID,0,VALID,100,VALID,-0.0339617,VALID,20.3796,VALID,276,VALID,0.0704942,
2006-10-19, 09:42:00,VALID,916.83,VALID,0,VALID,100,VALID,-0.0509425,VALID,20.3729,VALID,276,VALID,0.228906,
2006-10-19, 09:43:00,VALID,916.832,VALID,0,VALID,100,VALID,-0.0339617,VALID,20.3696,VALID,276,VALID,0.00742187,
2006-10-19, 09:44:00,VALID,916.832,VALID,0,VALID,100,VALID,-0.0169808,VALID,20.3634,VALID,276,VALID,0.00090843,
2006-10-19, 09:45:00,VALID,916.814,VALID,0,VALID,100,VALID,-0.0339617,VALID,20.3699,VALID,298,VALID,0.211509,
2006-10-19, 09:46:00,VALID,916.794,VALID,0,VALID,100,VALID,-0.0169808,VALID,20.3731,VALID,334,VALID,0.0417969,
2006-10-19, 09:47:00,VALID,916.775,VALID,0,VALID,100,VALID,-0.0509425,VALID,20.3858,VALID,334,VALID,0,
2006-10-19, 09:48:00,VALID,916.743,VALID,0,VALID,100,VALID,-0.0169808,VALID,20.3925,VALID,277,VALID,0.207741,
2006-10-19, 09:49:00,VALID,916.72,VALID,0,VALID,100,VALID,-0.0169808,VALID,20.3793,VALID,270,VALID,0.00669643,
2006-10-19, 09:50:00,VALID,916.692,VALID,0,VALID,100,VALID,-0.0169808,VALID,20.389,VALID,270,VALID,0.022017,
2006-10-19, 09:51:00,VALID,916.676,VALID,0,VALID,100,VALID,-0.0339617,VALID,20.4092,VALID,270,VALID,0.110417,
2006-10-19, 09:52:00,VALID,916.654,VALID,0,VALID,100,VALID,-0.0509425,VALID,20.3888,VALID,270,VALID,0.0485491,
2006-10-19, 09:53:00,VALID,916.641,VALID,0,VALID,100,VALID,-0.0509425,VALID,20.3928,VALID,270,VALID,0.302455,
2006-10-19, 09:54:00,VALID,916.635,VALID,0,VALID,100,VALID,-0.0679233,VALID,20.3898,VALID,270,VALID,0.265234,
2006-10-19, 09:55:00,VALID,916.661,VALID,0,VALID,100,VALID,-0.101885,VALID,20.3505,VALID,270,VALID,0.355373,
2006-10-19, 09:56:00,VALID,916.695,VALID,0,VALID,100,VALID,-0.0509425,VALID,20.3118,VALID,266,VALID,0.297619,
2006-10-19, 09:57:00,VALID,916.727,VALID,0,VALID,100,VALID,-0.0849042,VALID,20.3126,VALID,266,VALID,0.0681641,
2006-10-19, 09:58:00,VALID,916.779,VALID,0,VALID,100,VALID,-0.0679233,VALID,20.3083,VALID,266,VALID,0.348895,
2006-10-19, 09:59:00,VALID,916.822,VALID,0,VALID,100,VALID,-0.0169808,VALID,20.3476,VALID,267,VALID,0.537609,
2006-10-19, 10:00:00,VALID,916.857,VALID,0,VALID,100,VALID,-0.0169808,VALID,20.3664,VALID,268,VALID,0.454167,
2006-10-19, 10:01:00,VALID,916.892,VALID,0,VALID,100,VALID,-0.0339617,VALID,20.3828,VALID,263,VALID,0.523793,
2006-10-19, 10:02:00,VALID,916.901,VALID,0,VALID,100,VALID,-0.0339617,VALID,20.3538,VALID,240,VALID,0.662695,
2006-10-19, 10:03:00,VALID,916.918,VALID,0,VALID,100,VALID,-0.0679233,VALID,20.3312,VALID,232,VALID,0.35423,
2006-10-19, 10:04:00,VALID,916.931,VALID,0,VALID,100,VALID,-0.0339617,VALID,20.3279,VALID,232,VALID,0.126953,
2006-10-19, 10:05:00,VALID,916.921,VALID,0,VALID,100,VALID,-0.0509425,VALID,20.3346,VALID,232,VALID,0.0347656,
2006-10-19, 10:06:00,VALID,916.924,VALID,0,VALID,100,VALID,-0.0679233,VALID,20.3346,VALID,232,VALID,0.00104167,
2006-10-19, 10:07:00,VALID,916.914,VALID,0,VALID,100,VALID,-0.0169808,VALID,20.3473,VALID,232,VALID,0.00319602,
2006-10-19, 10:08:00,VALID,916.898,VALID,0,VALID,100,VALID,-0.0339617,VALID,20.3468,VALID,232,VALID,0,
2006-10-19, 10:09:00,VALID,916.891,VALID,0,VALID,100,VALID,-0.0849042,VALID,20.36,VALID,232,VALID,0.00130208,
2006-10-19, 10:10:00,VALID,916.871,VALID,0,VALID,100,VALID,-0.0679233,VALID,20.3736,VALID,232,VALID,0.0209604,
2006-10-19, 10:11:00,VALID,916.848,VALID,0,VALID,100,VALID,-0.0169808,VALID,20.3699,VALID,232,VALID,0.177912,
2006-10-19, 10:12:00,VALID,916.84,VALID,0,VALID,100,VALID,-0.0339617,VALID,20.357,VALID,232,VALID,0.184896,
2006-10-19, 10:13:00,VALID,916.818,VALID,0,VALID,100,VALID,-0.0339617,VALID,20.36,VALID,232,VALID,0.0374273,
2006-10-19, 10:14:00,VALID,916.814,VALID,0,VALID,100,VALID,-0.0679233,VALID,20.3505,VALID,232,VALID,0,
2006-10-19, 10:15:00,VALID,916.816,VALID,0,VALID,100,VALID,-0.0849042,VALID,20.3503,VALID,232,VALID,0,
2006-10-19, 10:16:00,VALID,916.816,VALID,0,VALID,100,VALID,-0.0849042,VALID,20.3696,VALID,232,VALID,0,
2006-10-19, 10:17:00,VALID,916.809,VALID,0,VALID,100,VALID,-0.0679233,VALID,20.3833,VALID,232,VALID,0,
2006-10-19, 10:18:00,VALID,916.819,VALID,0,VALID,100,VALID,-0.0169808,VALID,20.3898,VALID,232,VALID,0,
2006-10-19, 10:19:00,VALID,916.82,VALID,0,VALID,100,VALID,-0.0679233,VALID,20.399,VALID,232,VALID,0.00545058,
2006-10-19, 10:20:00,VALID,916.818,VALID,0,VALID,100,VALID,-0.0339617,VALID,20.3729,VALID,232,VALID,0.236979,
2006-10-19, 10:21:00,VALID,916.811,VALID,0,VALID,100,VALID,-0.0679233,VALID,20.3702,VALID,232,VALID,0.233103,
2006-10-19, 10:22:00,VALID,916.808,VALID,0,VALID,100,VALID,-0.0849042,VALID,20.3508,VALID,232,VALID,0.192224,
2006-10-19, 10:23:00,VALID,916.813,VALID,0,VALID,100,VALID,-0.0679233,VALID,20.3371,VALID,232,VALID,0.217115,
2006-10-19, 10:24:00,VALID,916.826,VALID,0,VALID,100,VALID,-0.0679233,VALID,20.3699,VALID,241,VALID,0.401414,
2006-10-19, 10:25:00,VALID,916.84,VALID,0,VALID,100,VALID,-0.0849042,VALID,20.4086,VALID,268,VALID,0.871185,
2006-10-19, 10:26:00,VALID,916.848,VALID,0,VALID,100,VALID,0,VALID,20.4272,VALID,272,VALID,0.842262,
2006-10-19, 10:27:00,VALID,916.862,VALID,0,VALID,100,VALID,-0.0339617,VALID,20.4342,VALID,271,VALID,0.557706,
2006-10-19, 10:28:00,VALID,916.883,VALID,0,VALID,100,VALID,-0.0509425,VALID,20.4509,VALID,268,VALID,0.519345,
2006-10-19, 10:29:00,VALID,916.897,VALID,0,VALID,100,VALID,-0.0169808,VALID,20.4732,VALID,270,VALID,0.621911,
2006-10-19, 10:30:00,VALID,916.912,VALID,0,VALID,100,VALID,-0.0509425,VALID,20.4993,VALID,273,VALID,0.69029,
2006-10-19, 10:31:00,VALID,916.922,VALID,0,VALID,100,VALID,-0.0169808,VALID,20.5077,VALID,273,VALID,0.70332,
2006-10-19, 10:32:00,VALID,916.932,VALID,0,VALID,100,VALID,-0.0509425,VALID,20.5179,VALID,273,VALID,0.72207,
2006-10-19, 10:33:00,VALID,916.935,VALID,0,VALID,100,VALID,0,VALID,20.5249,VALID,274,VALID,0.412016,
2006-10-19, 10:34:00,VALID,916.932,VALID,0,VALID,100,VALID,-0.0169808,VALID,20.5176,VALID,274,VALID,0.18716,
2006-10-19, 10:35:00,VALID,916.926,VALID,0,VALID,100,VALID,-0.0169808,VALID,20.4948,VALID,237,VALID,0.542878,
2006-10-19, 10:36:00,VALID,916.925,VALID,0,VALID,100,VALID,-0.0509425,VALID,20.4762,VALID,221,VALID,0.605923,
2006-10-19, 10:37:00,VALID,916.926,VALID,0,VALID,100,VALID,0,VALID,20.4466,VALID,225,VALID,0.646019,
2006-10-19, 10:38:00,VALID,916.926,VALID,0,VALID,100,VALID,-0.0169808,VALID,20.4439,VALID,229,VALID,0.429688,
2006-10-19, 10:39:00,VALID,916.935,VALID,0,VALID,100,VALID,-0.0169808,VALID,20.4633,VALID,235,VALID,0.492759,
2006-10-19, 10:40:00,VALID,916.939,VALID,0,VALID,100,VALID,0,VALID,20.4886,VALID,256,VALID,0.536519,
2006-10-19, 10:41:00,VALID,916.937,VALID,0,VALID,100,VALID,0,VALID,20.505,VALID,256,VALID,0.149826,
2006-10-19, 10:42:00,VALID,916.952,VALID,0,VALID,100,VALID,0,VALID,20.5276,VALID,256,VALID,0.188262,